Regional Weather Roundup
Issued by NWS

Home | Current Version | Previous Version | Graphics & Text | Print | Product List | Glossary On
Versions: 1 2 3 4 5 6 7 8 9 10 11 12 13 14 15 16 17 18 19 20 21 22 23 24 25 26 27 28 29 30 31 32 33 34 35 36 37 38 39 40 41 42 43 44 45 46 47 48 49 50
000
ASUS43 KOAX 201602
RWRNE

WEATHER ROUNDUP FOR NEBRASKA
NATIONAL WEATHER SERVICE OMAHA NE
1100 AM CDT FRI OCT 20 2017

NOTES: SATELLITE DATA IS BEING USED TO AUGMENT CLOUD COVER ABOVE
       12000 FEET.
       "FAIR" INDICATES FEW OR NO CLOUDS BELOW 12,000 FEET WITH NO
       SIGNIFICANT WEATHER AND/OR OBSTRUCTIONS TO VISIBILITY.


NEZ001>004-019>022-054>056-201700-
NEBRASKA PANHANDLE

CITY           SKY/WX    TMP DP  RH WIND       PRES   REMARKS
SCOTTSBLUFF    CLOUDY    53  42  66 VRB6      29.66F
ALLIANCE       CLOUDY    55  45  68 S8        29.66F
CHADRON        CLOUDY    68  38  33 SW9       29.59F
GORDON         FAIR      60  47  63 SW10      29.63F
KIMBALL        CLOUDY    65  35  31 CALM      29.71F
SIDNEY         CLOUDY    61  39  44 W6        29.69F
$$

NEZ057>060-069>072-079>082-201700-
SOUTHWEST NEBRASKA

CITY           SKY/WX    TMP DP  RH WIND       PRES   REMARKS
NORTH PLATTE   CLOUDY    59  50  72 SE8       29.72F
IMPERIAL       CLOUDY    63  51  65 S17       29.70F
LEXINGTON      SUNNY     60  51  70 S12G17    29.76F
MCCOOK         MOSUNNY   63  51  65 S15G24    29.73F
OGALLALA       CLOUDY    63  52  67 S15       29.69F
$$

NEZ005>010-023>029-035>040-094-201700-
NORTH CENTRAL NEBRASKA

CITY           SKY/WX    TMP DP  RH WIND       PRES   REMARKS
VALENTINE      CLOUDY    66  49  54 SW25      29.64F
AINSWORTH      SUNNY     63  51  65 S22G28    29.68F
BROKEN BOW     SUNNY     62  51  67 S21G32    29.75F
O`NEILL        CLOUDY    65  53  63 S20G25    29.73F
ORD              N/A     64  51  62 S21G30    29.75F
THEDFORD       SUNNY     62  51  66 S22G28    29.69F
$$

NEZ041-046>049-061>064-073>077-083>087-201700-
SOUTH CENTRAL NEBRASKA

CITY           SKY/WX    TMP DP  RH WIND       PRES   REMARKS
GRAND ISLAND   MOSUNNY   64  54  69 S23G31    29.81F
AURORA         CLOUDY    66  54  64 S16G23    29.82F
HASTINGS       CLOUDY    65  52  62 S18G28    29.82F
HEBRON         MOSUNNY   68  55  64 S16G25    29.86F
HOLDREGE       MOSUNNY   64  53  67 S23G32    29.77F
KEARNEY        MOSUNNY   66  53  63 S22       29.79F
YORK           CLOUDY    64  55  72 S21G28    29.85F
$$

NEZ011>018-030>034-042>045-201700-
NORTHEAST NEBRASKA

CITY           SKY/WX    TMP DP  RH WIND       PRES   REMARKS
NORFOLK        SUNNY     67  53  61 S18G24    29.79F
ALBION         MOSUNNY   66  53  63 S18G30    29.79F
BLAIR          CLOUDY    66  55  66 S21G29    29.89F
COLUMBUS       SUNNY     67  54  63 S16G22    29.84F
TEKAMAH        CLOUDY    67  53  61 S16G22    29.88F
WAYNE          SUNNY     66  52  59 S22G30    29.81F
$$

NEZ050>053-065>068-078-088>093-201700-
SOUTHEAST NEBRASKA

CITY           SKY/WX    TMP DP  RH WIND       PRES   REMARKS
LINCOLN        CLOUDY    67  55  65 S21       29.88F
OMAHA EPPLEY   CLOUDY    65  54  67 S17G23    29.92F
BEATRICE       CLOUDY    67  56  68 S18       29.90F
FALLS CITY     CLOUDY    65  54  67 S16G24    29.97F
NEBRASKA CITY  CLOUDY    67  56  69 S21G28    29.95F
PLATTSMOUTH    SUNNY     68  56  67 S14G24    29.93F
$$

NEZ044-045-051>053-067-201700-
OMAHA AREA

CITY           SKY/WX    TMP DP  RH WIND       PRES   REMARKS
OMAHA EPPLEY   CLOUDY    65  54  67 S17G23    29.92F
BLAIR          CLOUDY    66  55  66 S21G29    29.89F
MILLARD        SUNNY     67  56  68 S13G21    29.91F
OFFUTT AFB     SUNNY     65  55  69 SE15      29.91F
PLATTSMOUTH    SUNNY     68  56  67 S14G24    29.93F
WAHOO          FAIR      67  54  61 S21G31    29.88F
$$




USA.gov is the U.S. government's official web portal to all federal, state and local government web resources and services.